Regional Weather Roundup
Issued by NWS Albany, NY

Home | Current Version | Previous Version | Graphics & Text | Print | Product List | Glossary Off
Versions: 1 2 3 4 5 6 7 8 9 10 11 12 13 14 15 16 17 18 19 20 21 22 23 24 25

000
ASUS41 KALY 231710
RWRALY

NEW YORK STATE HOURLY WEATHER ROUNDUP
NATIONAL WEATHER SERVICE ALBANY NY
100 PM EDT SUN JUL 23 2017

NOTE: "FAIR" INDICATES FEW OR NO CLOUDS BELOW 12,000 FEET WITH NO
SIGNIFICANT WEATHER AND/OR NO OBSTRUCTIONS TO VISIBILITY.

NYZ032-033-038>043-046>054-057>066-NYZ062>081-082-084-231800-
EAST


CITY           SKY/WX    TMP DP  RH WIND       PRES   REMARKS
ALBANY         CLOUDY    77  62  59 N5        29.85S
GLENS FALLS    CLOUDY    75  58  55 N5        29.85S
POUGHKEEPSIE   PTSUNNY   78  64  61 E3        29.82R
NEWBURGH       PTSUNNY   81  68  65 VRB5      29.85R
MONTGOMERY     CLOUDY    81  66  60 VRB3      29.83R
ISLIP          PTSUNNY   79  67  66 SE8       29.82S
NEW YORK CITY  LGT RAIN  77  68  73 NE10      29.83R
CENTRAL PARK   CLOUDY    74  69  85 CALM      29.86R
$$

NYZ005>009-017-018-044>046-055-056-231800-
CENTRAL


CITY           SKY/WX    TMP DP  RH WIND       PRES   REMARKS
FULTON         CLOUDY    77  64  64 VRB5      29.81S
SYRACUSE       CLOUDY    74  65  73 E8        29.80S
ROME           CLOUDY    76  63  64 SE9       29.83S
ELMIRA         CLOUDY    78  70  76 VRB5      29.80S
BINGHAMTON     CLOUDY    71  64  78 S5        29.86R
$$

NYZ026>034-041>043-087-231800-
NORTH


CITY           SKY/WX    TMP DP  RH WIND       PRES   REMARKS
WATERTOWN      MOSUNNY   77  66  68 NE12      29.83S
FORT DRUM      NOT AVBL
OGDENSBURG     FAIR      69  53  55 NE7       29.88S
MASSENA        PTSUNNY   71  52  50 NE14      29.90S
SARANAC LAKE   CLOUDY    67  55  65 NE10      29.90S
PLATTSBURGH    MOSUNNY   73  50  44 NE7       29.88F
$$

NYZ001>004-010>016-019>021-085-231800-
WEST


CITY           SKY/WX    TMP DP  RH WIND       PRES   REMARKS
NIAGARA FALLS  PTSUNNY   85  68  56 VRB6      29.76S
BUFFALO        PTSUNNY   81  68  64 S3        29.76S
DUNKIRK        PTSUNNY   79  71  76 W10       29.77S
JAMESTOWN      MOSUNNY   79  66  65 W15       29.82S
WELLSVILLE     CLOUDY    75  69  81 SE3       29.86S
ROCHESTER      CLOUDY    80  66  62 E7        29.79R
PENN YAN       MOSUNNY   78  68  71 VRB5      29.81S
$$

             KEY
       WCI = WIND CHILL INDEX
       VSB = VISIBILITY
       HX  = HEAT INDEX
$$




USA.gov is the U.S. government's official web portal to all federal, state and local government web resources and services.